{"data":{"norad_id":61850,"intl_designator":"2024-202F","name":"STARLINK-32330","alt_names":[],"object_type":"PAYLOAD","status":"ACTIVE","operator":null,"country":"US","launch_date":"2024-11-07","launch_site_code":"AFETR","launch_vehicle":null,"mission":null,"orbit_class":"UNKNOWN","rcs_meters":null,"size_class":null,"mass_kg":null,"dimensions":null,"purposes":["comms"],"wikipedia_slug":null,"has_3d_model":false,"image_url":null,"decayed_at":null,"tle_current":{"epoch":"2026-09-20T22:41:38.289120Z","epoch_age_seconds":150017,"freshness":"FRESH","line1":"1 61850U 24202F   26263.94558205  .00000093  00000+0  12888-4 0  9999","line2":"2 61850  42.9997 214.9324 0001096 270.6995  89.3731 15.27576612105202","mean_motion":15.27576612,"eccentricity":0.0001096,"inclination_deg":42.9997,"raan_deg":214.9324,"arg_perigee_deg":270.6995,"mean_anomaly_deg":89.3731,"bstar":1.2888e-5,"rev_number":10520,"period_min":94.266957787123,"perigee_km":482.30725384122,"apogee_km":483.81122805724,"semimajor_km":6861.1962409492,"source":"CELESTRAK","updated_at":"2026-09-22T09:00:49.440700Z"}}}